Time,TemperatureF,DewpointF,PressureIn,WindDirection,WindDirectionDegrees,WindSpeedMPH,WindSpeedGustMPH,Humidity,HourlyPrecipIn,Conditions,Clouds,dailyrainin,SoftwareType,DateUTC
2013-05-31 00:02:00,59.0,-99.9,29.96,South,183,1.0,3.0,-999,-99.99,,,-99.99,,2013-05-31 07:02:00,
2013-05-31 00:12:00,59.0,-99.9,29.97,SSE,168,2.0,4.0,-999,-99.99,,,-99.99,,2013-05-31 07:12:00,
2013-05-31 00:21:00,58.0,-99.9,29.97,WSW,252,1.0,2.0,-999,-99.99,,,-99.99,,2013-05-31 07:21:00,
2013-05-31 00:32:00,58.0,-99.9,29.97,SSE,157,2.0,4.0,-999,-99.99,,,-99.99,,2013-05-31 07:32:00,
2013-05-31 00:42:00,58.0,-99.9,29.97,South,176,3.0,4.0,-999,-99.99,,,-99.99,,2013-05-31 07:42:00,
2013-05-31 00:53:00,58.0,-99.9,29.97,SE,136,4.0,4.0,-999,-99.99,,,-99.99,,2013-05-31 07:53:00,
2013-05-31 01:02:00,58.0,-99.9,29.97,ESE,103,2.0,3.0,-999,-99.99,,,-99.99,,2013-05-31 08:02:00,
2013-05-31 01:11:00,58.0,-99.9,29.97,West,280,0.0,2.0,-999,-99.99,,,-99.99,,2013-05-31 08:11:00,
2013-05-31 01:22:00,58.0,-99.9,29.97,WNW,297,1.0,3.0,-999,-99.99,,,-99.99,,2013-05-31 08:22:00,
2013-05-31 01:32:00,57.0,-99.9,29.97,WSW,242,3.0,5.0,-999,-99.99,,,-99.99,,2013-05-31 08:32:00,
2013-05-31 01:42:00,56.0,-99.9,29.97,West,259,4.0,6.0,-999,-99.99,,,-99.99,,2013-05-31 08:42:00,
2013-05-31 01:52:00,56.0,-99.9,29.97,WSW,255,6.0,7.0,-999,-99.99,,,-99.99,,2013-05-31 08:52:00,
2013-05-31 02:01:00,56.0,-99.9,29.97,WSW,256,4.0,6.0,-999,-99.99,,,-99.99,,2013-05-31 09:01:00,
2013-05-31 02:11:00,55.0,-99.9,29.97,West,259,6.0,7.0,-999,-99.99,,,-99.99,,2013-05-31 09:11:00,
2013-05-31 02:21:00,55.0,-99.9,29.97,West,264,4.0,7.0,-999,-99.99,,,-99.99,,2013-05-31 09:21:00,
2013-05-31 02:32:00,56.0,-99.9,29.97,SW,235,2.0,6.0,-999,-99.99,,,-99.99,,2013-05-31 09:32:00,
2013-05-31 02:43:00,56.0,-99.9,29.97,SW,214,2.0,2.0,-999,-99.99,,,-99.99,,2013-05-31 09:43:00,
2013-05-31 02:53:00,56.0,-99.9,29.97,SW,227,3.0,4.0,-999,-99.99,,,-99.99,,2013-05-31 09:53:00,
2013-05-31 03:02:00,56.0,-99.9,29.97,West,260,2.0,4.0,-999,-99.99,,,-99.99,,2013-05-31 10:02:00,
2013-05-31 03:12:00,56.0,-99.9,29.96,SW,230,2.0,3.0,-999,-99.99,,,-99.99,,2013-05-31 10:12:00,
2013-05-31 03:23:00,56.0,-99.9,29.96,ESE,102,-999.0,2.0,-999,-99.99,,,-99.99,,2013-05-31 10:23:00,
2013-05-31 03:33:00,56.0,-99.9,29.96,WSW,257,0.0,1.0,-999,-99.99,,,-99.99,,2013-05-31 10:33:00,
2013-05-31 03:42:00,56.0,-99.9,29.96,East,97,0.0,1.0,-999,-99.99,,,-99.99,,2013-05-31 10:42:00,
2013-05-31 03:52:00,56.0,-99.9,29.96,SE,139,0.0,4.0,-999,-99.99,,,-99.99,,2013-05-31 10:52:00,
2013-05-31 04:02:00,56.0,-99.9,29.96,SSE,158,2.0,2.0,-999,-99.99,,,-99.99,,2013-05-31 11:02:00,
2013-05-31 04:12:00,56.0,-99.9,29.96,SSE,158,2.0,2.0,-999,-99.99,,,-99.99,,2013-05-31 11:12:00,
2013-05-31 04:22:00,56.0,-99.9,29.96,SSE,153,2.0,5.0,-999,-99.99,,,-99.99,,2013-05-31 11:22:00,
2013-05-31 04:32:00,56.0,-99.9,29.96,ESE,115,2.0,3.0,-999,-99.99,,,-99.99,,2013-05-31 11:32:00,
2013-05-31 04:42:00,55.0,-99.9,29.96,ENE,66,3.0,4.0,-999,-99.99,,,-99.99,,2013-05-31 11:42:00,
2013-05-31 04:52:00,55.0,-99.9,29.96,NE,42,3.0,4.0,-999,-99.99,,,-99.99,,2013-05-31 11:52:00,
2013-05-31 05:01:00,55.0,-99.9,29.96,ENE,73,3.0,4.0,-999,-99.99,,,-99.99,,2013-05-31 12:01:00,
2013-05-31 05:11:00,55.0,-99.9,29.96,NE,49,2.0,3.0,-999,-99.99,,,-99.99,,2013-05-31 12:11:00,
2013-05-31 05:22:00,55.0,-99.9,29.96,ENE,71,1.0,2.0,-999,-99.99,,,-99.99,,2013-05-31 12:22:00,
2013-05-31 05:32:00,55.0,-99.9,29.96,ENE,71,1.0,2.0,-999,-99.99,,,-99.99,,2013-05-31 12:32:00,
2013-05-31 05:42:00,54.0,-99.9,29.96,NNE,24,0.0,1.0,-999,-99.99,,,-99.99,,2013-05-31 12:42:00,
2013-05-31 05:52:00,55.0,-99.9,29.96,NE,40,2.0,2.0,-999,-99.99,,,-99.99,,2013-05-31 12:52:00,
2013-05-31 06:01:00,55.0,-99.9,29.96,NE,40,2.0,2.0,-999,-99.99,,,-99.99,,2013-05-31 13:01:00,
2013-05-31 06:11:00,54.0,-99.9,29.97,North,350,2.0,3.0,-999,-99.99,,,-99.99,,2013-05-31 13:11:00,
2013-05-31 06:21:00,54.0,-99.9,29.97,NNW,344,2.0,3.0,-999,-99.99,,,-99.99,,2013-05-31 13:21:00,
2013-05-31 06:32:00,54.0,-99.9,29.98,NW,318,1.0,2.0,-999,-99.99,,,-99.99,,2013-05-31 13:32:00,
2013-05-31 06:42:00,55.0,-99.9,29.98,NNW,336,1.0,3.0,-999,-99.99,,,-99.99,,2013-05-31 13:42:00,
2013-05-31 06:52:00,55.0,-99.9,29.98,WNW,282,2.0,3.0,-999,-99.99,,,-99.99,,2013-05-31 13:52:00,
2013-05-31 07:02:00,56.0,-99.9,29.98,NW,323,0.0,2.0,-999,-99.99,,,-99.99,,2013-05-31 14:02:00,
2013-05-31 07:11:00,56.0,-99.9,29.98,NNW,334,2.0,2.0,-999,-99.99,,,-99.99,,2013-05-31 14:11:00,
2013-05-31 07:22:00,57.0,-99.9,29.99,North,2,1.0,2.0,-999,-99.99,,,-99.99,,2013-05-31 14:22:00,
2013-05-31 07:32:00,57.0,-99.9,29.99,ENE,75,2.0,3.0,-999,-99.99,,,-99.99,,2013-05-31 14:32:00,
2013-05-31 07:42:00,56.0,-99.9,29.99,East,95,3.0,5.0,-999,-99.99,,,-99.99,,2013-05-31 14:42:00,
2013-05-31 07:52:00,56.0,-99.9,30.00,East,96,3.0,4.0,-999,-99.99,,,-99.99,,2013-05-31 14:52:00,
2013-05-31 08:01:00,56.0,-99.9,30.00,East,96,3.0,3.0,-999,-99.99,,,-99.99,,2013-05-31 15:01:00,
2013-05-31 08:11:00,56.0,-99.9,30.00,East,91,4.0,4.0,-999,-99.99,,,-99.99,,2013-05-31 15:11:00,
2013-05-31 08:22:00,56.0,-99.9,30.00,East,91,3.0,4.0,-999,-99.99,,,-99.99,,2013-05-31 15:22:00,
2013-05-31 08:33:00,56.0,-99.9,30.00,ESE,111,6.0,6.0,-999,-99.99,,,-99.99,,2013-05-31 15:33:00,
2013-05-31 08:43:00,56.0,-99.9,30.00,ESE,114,7.0,8.0,-999,-99.99,,,-99.99,,2013-05-31 15:43:00,
2013-05-31 08:53:00,56.0,-99.9,29.99,ESE,112,7.0,8.0,-999,-99.99,,,-99.99,,2013-05-31 15:53:00,
2013-05-31 09:03:00,56.0,-99.9,29.99,ESE,113,8.0,9.0,-999,-99.99,,,-99.99,,2013-05-31 16:03:00,
2013-05-31 09:12:00,56.0,-99.9,29.99,ESE,115,9.0,9.0,-999,-99.99,,,-99.99,,2013-05-31 16:12:00,
2013-05-31 09:22:00,57.0,-99.9,30.00,ESE,117,8.0,10.0,-999,-99.99,,,-99.99,,2013-05-31 16:22:00,
2013-05-31 09:33:00,57.0,-99.9,30.00,ESE,118,9.0,10.0,-999,-99.99,,,-99.99,,2013-05-31 16:33:00,
2013-05-31 09:42:00,57.0,-99.9,30.00,ESE,122,9.0,10.0,-999,-99.99,,,-99.99,,2013-05-31 16:42:00,
2013-05-31 09:53:00,57.0,-99.9,30.00,SE,128,8.0,9.0,-999,-99.99,,,-99.99,,2013-05-31 16:53:00,
2013-05-31 10:02:00,58.0,-99.9,30.00,ESE,119,7.0,8.0,-999,-99.99,,,-99.99,,2013-05-31 17:02:00,
2013-05-31 10:12:00,58.0,-99.9,30.00,ESE,115,8.0,9.0,-999,-99.99,,,-99.99,,2013-05-31 17:12:00,
2013-05-31 10:22:00,58.0,-99.9,30.00,ESE,115,8.0,9.0,-999,-99.99,,,-99.99,,2013-05-31 17:22:00,
2013-05-31 10:32:00,58.0,-99.9,30.00,ESE,120,5.0,6.0,-999,-99.99,,,-99.99,,2013-05-31 17:32:00,
2013-05-31 10:42:00,59.0,-99.9,30.00,ESE,116,4.0,5.0,-999,-99.99,,,-99.99,,2013-05-31 17:42:00,
2013-05-31 10:52:00,59.0,-99.9,30.00,ESE,108,4.0,4.0,-999,-99.99,,,-99.99,,2013-05-31 17:52:00,
2013-05-31 11:02:00,59.0,-99.9,30.00,NNE,20,3.0,4.0,-999,-99.99,,,-99.99,,2013-05-31 18:02:00,
2013-05-31 11:12:00,58.0,-99.9,30.00,North,358,2.0,3.0,-999,-99.99,,,-99.99,,2013-05-31 18:12:00,
2013-05-31 11:22:00,59.0,-99.9,30.00,North,351,3.0,4.0,-999,-99.99,,,-99.99,,2013-05-31 18:22:00,
2013-05-31 11:32:00,59.0,-99.9,29.99,North,356,3.0,3.0,-999,-99.99,,,-99.99,,2013-05-31 18:32:00,
2013-05-31 11:42:00,60.0,-99.9,29.99,North,350,3.0,3.0,-999,-99.99,,,-99.99,,2013-05-31 18:42:00,
2013-05-31 11:52:00,60.0,-99.9,29.99,NNW,340,4.0,4.0,-999,-99.99,,,-99.99,,2013-05-31 18:52:00,
2013-05-31 12:02:00,60.0,-99.9,29.99,NNW,337,4.0,5.0,-999,-99.99,,,-99.99,,2013-05-31 19:02:00,
2013-05-31 12:11:00,60.0,-99.9,29.99,NNW,339,5.0,5.0,-999,-99.99,,,-99.99,,2013-05-31 19:11:00,
2013-05-31 12:22:00,61.0,-99.9,29.99,NNW,342,3.0,4.0,-999,-99.99,,,-99.99,,2013-05-31 19:22:00,
2013-05-31 12:32:00,63.0,-99.9,29.98,NNW,330,2.0,3.0,-999,-99.99,,,-99.99,,2013-05-31 19:32:00,
2013-05-31 12:42:00,64.0,-99.9,29.98,North,353,2.0,2.0,-999,-99.99,,,-99.99,,2013-05-31 19:42:00,
2013-05-31 12:52:00,64.0,-99.9,29.98,East,84,1.0,2.0,-999,-99.99,,,-99.99,,2013-05-31 19:52:00,
2013-05-31 13:02:00,70.0,-99.9,29.98,WSW,247,9.0,13.0,-999,-99.99,,,-99.99,,2013-05-31 20:02:00,
2013-05-31 13:11:00,69.0,-99.9,29.98,SW,234,8.0,15.0,-999,-99.99,,,-99.99,,2013-05-31 20:11:00,
2013-05-31 13:22:00,69.0,-99.9,29.98,WSW,251,8.0,13.0,-999,-99.99,,,-99.99,,2013-05-31 20:22:00,
2013-05-31 13:32:00,69.0,-99.9,29.97,West,259,6.0,13.0,-999,-99.99,,,-99.99,,2013-05-31 20:32:00,
2013-05-31 13:42:00,71.0,-99.9,29.97,WSW,250,5.0,11.0,-999,-99.99,,,-99.99,,2013-05-31 20:42:00,
2013-05-31 13:52:00,70.0,-99.9,29.97,WSW,254,9.0,13.0,-999,-99.99,,,-99.99,,2013-05-31 20:52:00,
2013-05-31 14:01:00,71.0,-99.9,29.96,WSW,252,6.0,9.0,-999,-99.99,,,-99.99,,2013-05-31 21:01:00,
2013-05-31 14:11:00,70.0,-99.9,29.96,SW,225,9.0,14.0,-999,-99.99,,,-99.99,,2013-05-31 21:11:00,
2013-05-31 14:22:00,71.0,-99.9,29.96,SW,236,7.0,11.0,-999,-99.99,,,-99.99,,2013-05-31 21:22:00,
2013-05-31 14:33:00,71.0,-99.9,29.96,SW,228,9.0,12.0,-999,-99.99,,,-99.99,,2013-05-31 21:33:00,
2013-05-31 14:43:00,71.0,-99.9,29.95,SW,227,6.0,12.0,-999,-99.99,,,-99.99,,2013-05-31 21:43:00,
2013-05-31 14:54:00,74.0,-99.9,29.95,SW,217,4.0,9.0,-999,-99.99,,,-99.99,,2013-05-31 21:54:00,
2013-05-31 15:03:00,74.0,-99.9,29.94,SW,227,4.0,11.0,-999,-99.99,,,-99.99,,2013-05-31 22:03:00,
2013-05-31 15:12:00,74.0,-99.9,29.94,SW,230,6.0,10.0,-999,-99.99,,,-99.99,,2013-05-31 22:12:00,
2013-05-31 15:22:00,72.0,-99.9,29.94,WSW,258,11.0,17.0,-999,-99.99,,,-99.99,,2013-05-31 22:22:00,
2013-05-31 15:33:00,73.0,-99.9,29.93,WSW,245,8.0,17.0,-999,-99.99,,,-99.99,,2013-05-31 22:33:00,
2013-05-31 15:42:00,72.0,-99.9,29.93,WSW,249,13.0,19.0,-999,-99.99,,,-99.99,,2013-05-31 22:42:00,
2013-05-31 15:53:00,72.0,-99.9,29.93,WSW,252,12.0,20.0,-999,-99.99,,,-99.99,,2013-05-31 22:53:00,
2013-05-31 16:02:00,72.0,-99.9,29.92,WSW,250,15.0,21.0,-999,-99.99,,,-99.99,,2013-05-31 23:02:00,
2013-05-31 16:12:00,72.0,-99.9,29.92,WSW,244,15.0,19.0,-999,-99.99,,,-99.99,,2013-05-31 23:12:00,
2013-05-31 16:22:00,72.0,-99.9,29.91,WSW,248,13.0,19.0,-999,-99.99,,,-99.99,,2013-05-31 23:22:00,
2013-05-31 16:32:00,71.0,-99.9,29.91,WSW,246,16.0,22.0,-999,-99.99,,,-99.99,,2013-05-31 23:32:00,
2013-05-31 16:42:00,70.0,-99.9,29.91,WSW,251,13.0,20.0,-999,-99.99,,,-99.99,,2013-05-31 23:42:00,
2013-05-31 16:52:00,69.0,-99.9,29.91,WSW,251,17.0,24.0,-999,-99.99,,,-99.99,,2013-05-31 23:52:00,
2013-05-31 17:01:00,69.0,-99.9,29.91,WSW,248,12.0,19.0,-999,-99.99,,,-99.99,,2013-06-01 00:01:00,
2013-05-31 17:12:00,69.0,-99.9,29.91,WSW,245,10.0,17.0,-999,-99.99,,,-99.99,,2013-06-01 00:12:00,
2013-05-31 17:22:00,69.0,-99.9,29.90,SW,226,9.0,17.0,-999,-99.99,,,-99.99,,2013-06-01 00:22:00,
2013-05-31 17:32:00,69.0,-99.9,29.90,SW,224,10.0,15.0,-999,-99.99,,,-99.99,,2013-06-01 00:32:00,
2013-05-31 17:42:00,69.0,-99.9,29.90,SW,226,7.0,10.0,-999,-99.99,,,-99.99,,2013-06-01 00:42:00,
2013-05-31 17:52:00,67.0,-99.9,29.90,SW,217,9.0,13.0,-999,-99.99,,,-99.99,,2013-06-01 00:52:00,
2013-05-31 18:02:00,67.0,-99.9,29.90,SW,235,11.0,16.0,-999,-99.99,,,-99.99,,2013-06-01 01:02:00,
2013-05-31 18:11:00,66.0,-99.9,29.90,SW,230,13.0,20.0,-999,-99.99,,,-99.99,,2013-06-01 01:11:00,
2013-05-31 18:22:00,66.0,-99.9,29.89,WSW,237,14.0,19.0,-999,-99.99,,,-99.99,,2013-06-01 01:22:00,
2013-05-31 18:32:00,67.0,-99.9,29.90,SW,230,6.0,15.0,-999,-99.99,,,-99.99,,2013-06-01 01:32:00,
2013-05-31 18:42:00,66.0,-99.9,29.90,SSW,196,4.0,9.0,-999,-99.99,,,-99.99,,2013-06-01 01:42:00,
2013-05-31 18:52:00,67.0,-99.9,29.90,South,173,3.0,6.0,-999,-99.99,,,-99.99,,2013-06-01 01:52:00,
2013-05-31 19:02:00,64.0,-99.9,29.90,ESE,117,3.0,5.0,-999,-99.99,,,-99.99,,2013-06-01 02:02:00,
2013-05-31 19:12:00,64.0,-99.9,29.90,East,100,3.0,5.0,-999,-99.99,,,-99.99,,2013-06-01 02:12:00,
2013-05-31 19:22:00,65.0,-99.9,29.91,South,186,2.0,6.0,-999,-99.99,,,-99.99,,2013-06-01 02:22:00,
2013-05-31 19:32:00,65.0,-99.9,29.91,South,170,2.0,4.0,-999,-99.99,,,-99.99,,2013-06-01 02:32:00,
2013-05-31 19:42:00,65.0,-99.9,29.90,South,188,2.0,4.0,-999,-99.99,,,-99.99,,2013-06-01 02:42:00,
2013-05-31 19:52:00,64.0,-99.9,29.91,ESE,123,2.0,4.0,-999,-99.99,,,-99.99,,2013-06-01 02:52:00,
2013-05-31 20:02:00,65.0,-99.9,29.91,SSW,197,4.0,5.0,-999,-99.99,,,-99.99,,2013-06-01 03:02:00,
2013-05-31 20:11:00,65.0,-99.9,29.90,SSW,206,5.0,6.0,-999,-99.99,,,-99.99,,2013-06-01 03:11:00,
2013-05-31 20:22:00,65.0,-99.9,29.90,SW,221,4.0,5.0,-999,-99.99,,,-99.99,,2013-06-01 03:22:00,
2013-05-31 20:33:00,64.0,-99.9,29.90,WSW,244,5.0,6.0,-999,-99.99,,,-99.99,,2013-06-01 03:33:00,
2013-05-31 20:43:00,63.0,-99.9,29.90,WSW,247,7.0,10.0,-999,-99.99,,,-99.99,,2013-06-01 03:43:00,
2013-05-31 20:53:00,63.0,-99.9,29.90,WSW,238,6.0,8.0,-999,-99.99,,,-99.99,,2013-06-01 03:53:00,
2013-05-31 21:03:00,62.0,-99.9,29.90,WSW,239,6.0,9.0,-999,-99.99,,,-99.99,,2013-06-01 04:03:00,
2013-05-31 21:13:00,62.0,-99.9,29.90,SW,236,7.0,10.0,-999,-99.99,,,-99.99,,2013-06-01 04:13:00,
2013-05-31 21:23:00,61.0,-99.9,29.91,WSW,238,6.0,9.0,-999,-99.99,,,-99.99,,2013-06-01 04:23:00,
2013-05-31 21:33:00,61.0,-99.9,29.91,SW,221,6.0,11.0,-999,-99.99,,,-99.99,,2013-06-01 04:33:00,
2013-05-31 21:42:00,61.0,-99.9,29.91,SW,236,4.0,10.0,-999,-99.99,,,-99.99,,2013-06-01 04:42:00,
2013-05-31 21:53:00,61.0,-99.9,29.91,SW,228,6.0,9.0,-999,-99.99,,,-99.99,,2013-06-01 04:53:00,
2013-05-31 22:02:00,60.0,-99.9,29.91,SW,229,1.0,4.0,-999,-99.99,,,-99.99,,2013-06-01 05:02:00,
2013-05-31 22:12:00,60.0,-99.9,29.91,SW,217,2.0,3.0,-999,-99.99,,,-99.99,,2013-06-01 05:12:00,
2013-05-31 22:22:00,60.0,-99.9,29.91,South,188,1.0,2.0,-999,-99.99,,,-99.99,,2013-06-01 05:22:00,
2013-05-31 22:32:00,60.0,-99.9,29.92,SW,227,3.0,4.0,-999,-99.99,,,-99.99,,2013-06-01 05:32:00,
2013-05-31 22:43:00,60.0,-99.9,29.92,SW,232,2.0,4.0,-999,-99.99,,,-99.99,,2013-06-01 05:43:00,
2013-05-31 22:52:00,60.0,-99.9,29.92,South,191,1.0,4.0,-999,-99.99,,,-99.99,,2013-06-01 05:52:00,
2013-05-31 23:01:00,60.0,-99.9,29.92,South,191,1.0,4.0,-999,-99.99,,,-99.99,,2013-06-01 06:01:00,
2013-05-31 23:12:00,60.0,-99.9,29.92,SW,226,2.0,3.0,-999,-99.99,,,-99.99,,2013-06-01 06:12:00,
2013-05-31 23:22:00,59.0,-99.9,29.93,SW,229,2.0,4.0,-999,-99.99,,,-99.99,,2013-06-01 06:22:00,
2013-05-31 23:32:00,59.0,-99.9,29.92,SW,233,2.0,3.0,-999,-99.99,,,-99.99,,2013-06-01 06:32:00,
2013-05-31 23:42:00,59.0,-99.9,29.92,SW,234,3.0,4.0,-999,-99.99,,,-99.99,,2013-06-01 06:42:00,
2013-05-31 23:52:00,59.0,-99.9,29.93,WSW,247,1.0,3.0,-999,-99.99,,,-99.99,,2013-06-01 06:52:00,